Simultaneous Nadir Overpasses (SNOs) Predictions

Prediction of SNOs between AQUA and NPP Satellite Orbit:

Table of predicted SNOs for the next 14.0 days since TLE Epoch: 10/23/2021
Index Date (AQUA) Time (AQUA) Lat,Lon (AQUA) SZA (AQUA ) Date (NPP) Time (NPP) Lat,Lon (NPP) SZA (NPP ) Distance(km) Time Diff (sec)
1 10/23/2021 20:59:42 74.58, 100.38 109.24 10/23/2021 20:58:38 74.59, 100.44 109.29 1.90 64
2 10/23/2021 21:48:44 -75.85, -88.51 72.08 10/23/2021 21:48:57 -75.86, -88.44 72.12 2.09 13
3 10/26/2021 13:16:09 74.84,-143.10 109.85 10/26/2021 13:15:32 74.84,-143.12 109.89 0.37 37
4 10/26/2021 14:05:12 -76.05, 27.97 71.42 10/26/2021 14:05:52 -76.06, 27.97 71.46 0.12 40
5 10/29/2021 05:32:34 75.14, -26.45 110.40 10/29/2021 05:32:24 75.13, -26.52 110.43 2.03 10
6 10/29/2021 06:21:38 -76.29, 144.60 70.82 10/29/2021 06:22:45 -76.29, 144.55 70.87 1.36 67
7 10/31/2021 20:59:58 -74.23, -80.49 67.86 10/31/2021 20:58:58 -74.22, -80.55 67.78 2.30 60
8 10/31/2021 21:48:50 75.92, 91.66 110.42 10/31/2021 21:49:06 75.93, 91.75 110.38 2.79 16
9 11/03/2021 13:16:12 -75.13, 37.62 67.95 11/03/2021 13:15:38 -75.14, 37.71 67.94 2.66 34



Historial Predications of SNOs between AQUA and NPP
